Al Hoceima, Morocco

7:46 AM WEST on September 26, 2016 (GMT +0100)
Cherif Al Idrissi

Weather History for GMTA - September, 2013

Change the Weather History Date:

Wednesday, September 4, 2013

  Actual Average Record
Temperature  
Mean Temperature 75 °F -  
Max Temperature 86 °F 79 °F 92 °F (2014)
Min Temperature 64 °F 66 °F 60 °F (2012)
Cooling Degree Days 10    
Growing Degree Days 25 (Base 50)    
Moisture  
Dew Point 66 °F    
Average Humidity 63    
Maximum Humidity 73    
Minimum Humidity 49    
Precipitation  
Precipitation 0.00 in - - ()
Sea Level Pressure  
Sea Level Pressure 30.06 in    
Wind  
Wind Speed 5 mph ()    
Max Wind Speed 18 mph    
Max Gust Speed -    
Visibility 5.8 miles    
Events      
Averages and records for this station are not official NWS values.
T = Trace of Precipitation, MM = Missing Value Source: Averaged Metar Reports

Daily Weather History Graph

Daily Weather History Graph

Search for Another Location

Airport or City:

Trip Planner

Search our weather history database for the weather conditions in past years. The results will help you decide how hot, cold, wet, or windy it might be!

Date:

Astronomy

Sep. 04, 2013 Rise Set
Actual Time 6:50 AM WEST 7:37 PM WEST
Civil Twilight 6:24 AM WEST 8:03 PM WEST
Nautical Twilight 5:53 AM WEST 8:34 PM WEST
Astronomical Twilight 5:22 AM WEST 9:05 PM WEST
Moon 5:48 AM WEST (9/4) 6:50 PM WEST (9/4)
Length of Visible Light 13h 39m
Length of Day
12h 47m
Waning Crescent, 1% of the Moon is Illuminated
Sep 4
Waning Crescent
Sep 5
New
Sep 12
First Quarter
Sep 19
Full
Sep 27
Last Quarter

Hourly Weather History & Observations

Time (WEST) Temp. Heat Index Dew Point Humidity Pressure Visibility Wind Dir Wind Speed Gust Speed Precip Events Conditions
1:00 AM 71 °F - 62 °F 67% 30.16 in 6 mi West 2.3 mph - -   Scattered Clouds
1:00 AM 71.6 °F - 62.6 °F 73% 30.15 in 6.2 mi West 2.3 mph - N/A   Partly Cloudy
7:00 AM 65 °F - 58 °F 71% 30.12 in 6 mi SSW 2.3 mph - -   Scattered Clouds
7:00 AM 66.2 °F - 57.2 °F 73% 30.09 in 6.2 mi SSW 2.3 mph - N/A   Partly Cloudy
8:00 AM 75.2 °F - 64.4 °F 69% 30.09 in - South 2.3 mph - N/A   Partly Cloudy
9:00 AM 78.8 °F - 64.4 °F 61% 30.09 in 5.0 mi SSE 2.3 mph - N/A   Clear
10:00 AM 77 °F - 65 °F 57% 30.11 in 5 mi North 6.9 mph - -  
10:00 AM 77.0 °F - 64.4 °F 65% 30.09 in 5.0 mi North 6.9 mph - N/A   Clear
12:00 PM 82.4 °F 86.3 °F 69.8 °F 66% 30.06 in - NNE 11.5 mph - N/A   Clear
1:00 PM 84 °F - 69 °F 52% 30.06 in 5 mi ENE 16.1 mph - -   Scattered Clouds
1:00 PM 84.2 °F 88.4 °F 69.8 °F 62% 30.04 in 5.0 mi ENE 16.1 mph - N/A   Partly Cloudy
2:00 PM 82.4 °F 85.4 °F 68.0 °F 62% 30.04 in 5.0 mi NNE 18.4 mph - N/A   Partly Cloudy
3:00 PM 86.0 °F 89.4 °F 68.0 °F 55% 30.04 in 6.2 mi NE 11.5 mph - N/A   Partly Cloudy
4:00 PM 85 °F - 69 °F 49% 30.04 in 6 mi NE 9.2 mph - -   Scattered Clouds
4:00 PM 86.0 °F 89.4 °F 68.0 °F 55% 30.04 in 6.2 mi NE 9.2 mph - N/A   Partly Cloudy
5:00 PM 84.2 °F 87.3 °F 68.0 °F 58% 30.01 in 6.2 mi NE 6.9 mph - N/A   Partly Cloudy
6:00 PM 82.4 °F 85.4 °F 68.0 °F 62% 30.01 in 6.2 mi ENE 11.5 mph - N/A   Partly Cloudy
7:00 PM 82 °F - 68 °F 54% 30.01 in 6 mi ENE 6.9 mph - -   Scattered Clouds
7:00 PM 82.4 °F 85.4 °F 68.0 °F 62% 30.01 in 6.2 mi ENE 6.9 mph - N/A   Partly Cloudy
8:00 PM 78.8 °F - 66.2 °F 65% 30.01 in 6.2 mi East 6.9 mph - N/A   Partly Cloudy
9:00 PM 77.0 °F - 66.2 °F 69% 30.04 in 6.2 mi WSW 2.3 mph - N/A   Partly Cloudy
10:00 PM 76 °F - 66 °F 64% 30.05 in 6 mi WNW 4.6 mph - -   Scattered Clouds
10:00 PM 75.2 °F - 66.2 °F 73% 30.04 in 6.2 mi WNW 2.3 mph - N/A   Partly Cloudy